Location: Alston School (historical)
(35.5076°N, 89.8251°W)
Time: 22:44:59
(UTC+00:00)

Cosmos 990 Rocket - Pass Details

Date: 09 December 2025
Orbit: 742 x 764 km, 74.0° (Epoch: 16 January)

Event Time Altitude Azimuth Distance (km) Brightness Sun altitude
Rises 23:25:44 0° 188° (S) 3,162 7.6 -8.1°
Reaches altitude 10° 23:28:05 10° 186° (S) 2,243 6.8 -8.5°
Maximum altitude 23:33:07 66° 105° (ESE) 811 3.9 -9.5°
Drops below altitude 10° 23:38:11 10° 24° (NNE) 2,265 6.0 -10.4°
Enters shadow 23:40:00 - 22° (NNE) 2,971 6.7 -10.8°
